EHI
0 0 0 0 0 0 0 0 0 0 0 1 2 4 4 6 9 11 12 11 9 8 8 11 14 18 26 32 32 32 32 33 35 34 30 29 26 23 24 25 21 18 17 16
0 0 0 0 0 0 0 0 0 0 0 0 1 3 5 6 7 9 10 10 9 9 9 11 12 15 21 26 27 28 29 30 31 31 29 29 27 25 24 23 20 16 14 15
0 0 0 0 0 0 0 0 0 0 0 0 0 2 4 5 6 7 8 9 10 10 10 9 10 11 15 19 20 21 24 26 27 26 24 24 25 24 22 20 17 14 13 14
0 0 0 0 0 0 0 0 0 0 0 0 0 1 2 5 6 7 9 10 10 11 11 9 9 10 11 14 16 17 21 24 24 22 19 18 19 20 19 18 16 14 12 12
0 0 0 0 0 0 0 0 0 0 0 0 0 0 1 4 6 8 11 12 12 12 11 9 8 8 9 10 12 15 19 21 21 19 17 16 17 18 18 17 16 15 13 11
0 0 0 0 0 0 0 0 0 0 0 0 0 0 2 4 6 8 10 12 13 12 11 9 7 6 6 6 9 12 14 17 18 17 16 16 17 18 17 16 15 14 13 11
0 0 0 0 0 0 0 0 0 0 0 0 0 1 4 6 6 6 7 10 11 10 10 9 7 5 5 5 7 9 11 13 15 16 18 18 18 18 16 14 14 13 13 12
0 0 0 0 0 0 0 0 0 0 0 0 0 1 4 4 4 3 4 6 7 7 9 9 8 6 6 7 8 9 10 12 14 16 18 18 18 18 16 14 12 12 11 10
0 0 0 0 0 0 0 0 0 0 0 0 0 0 1 2 2 2 2 4 5 6 8 10 9 8 8 8 7 8 9 11 13 15 15 15 15 15 15 13 11 9 8 7
0 0 0 0 0 0 0 0 0 0 0 0 0 0 0 0 0 1 2 4 6 7 8 10 10 9 9 7 4 5 8 10 11 13 12 12 13 11 10 10 8 7 6 5
0 0 0 0 0 0 0 0 0 0 0 0 0 0 0 0 0 0 2 5 6 6 7 9 9 9 8 5 2 2 5 7 9 11 10 10 10 8 8 8 7 6 6 4
0 0 0 0 0 0 0 0 0 0 0 0 0 0 0 0 0 1 2 5 6 5 5 7 8 8 8 5 2 2 3 5 6 8 7 7 6 6 7 8 7 6 6 5
0 0 0 0 0 0 0 0 0 0 0 0 0 0 0 0 1 1 2 4 4 3 3 5 7 7 6 4 2 2 3 3 3 4 3 3 3 3 4 6 6 6 6 6
0 0 0 0 0 0 0 0 0 0 0 0 0 0 0 0 1 1 2 3 3 3 4 5 6 6 4 2 2 3 2 1 1 1 1 1 1 1 2 3 4 5 6 6
0 0 0 0 0 0 0 0 0 0 0 0 0 0 0 0 0 0 1 3 3 4 5 4 4 4 2 0 1 2 2 1 0 0 0 0 0 0 0 1 2 4 5 5
0 0 0 0 0 0 0 0 0 0 0 0 0 0 0 0 0 0 1 2 3 3 3 2 2 1 1 0 1 1 1 0 0 0 0 0 0 0 0 1 2 4 5 6
0 0 0 0 0 0 0 0 0 0 0 0 0 0 0 0 0 0 0 1 1 2 2 1 1 1 1 1 0 0 0 0 0 0 0 0 0 0 0 1 3 4 5 6
0 0 0 0 0 0 0 0 0 0 0 0 0 0 0 0 0 0 0 0 0 1 1 1 1 2 2 1 0 0 0 0 0 0 0 0 0 0 0 1 3 3 4 5
0 0 0 0 0 0 0 0 0 0 0 0 0 0 0 0 0 0 0 0 0 0 0 0 1 1 1 1 0 0 0 0 0 0 0 0 0 0 0 1 2 2 3 3
0 0 0 0 0 0 0 0 0 0 0 0 0 0 0 0 0 0 0 0 0 0 0 0 0 0 0 0 1 1 0 0 0 0 0 0 0 0 0 0 1 1 2 3
0 0 0 0 0 0 0 0 0 0 0 0 0 0 0 0 0 0 0 0 0 0 0 0 0 0 0 1 2 1 1 0 0 0 0 0 0 0 0 0 0 1 2 4
0 0 0 0 0 0 0 0 0 0 0 0 0 0 0 0 0 0 0 0 0 0 0 0 0 0 0 1 2 1 1 1 0 0 0 0 0 0 0 0 0 1 2 3
0 0 0 0 0 0 0 0 0 0 0 0 0 0 0 0 0 0 0 0 0 0 0 0 0 0 0 1 1 1 0 0 0 0 0 0 0 0 0 0 0 0 1 1
0 0 0 0 0 0 0 0 0 0 0 0 0 0 0 0 0 0 0 0 0 0 0 0 0 0 1 1 1 0 0 0 0 0 1 0 0 0 0 0 0 0 0 0
0 0 0 0 0 0 0 0 0 0 0 0 0 0 0 0 0 0 0 0 0 0 0 0 0 0 1 1 0 0 0 0 0 0 0 0 0 0 0 0 0 0 0 0
0 0 0 0 0 0 0 0 0 0 0 0 0 0 0 0 0 0 0 0 0 0 0 0 0 0 1 0 0 0 0 0 0 0 0 0 0 0 0 0 0 0 0 0
Wind_Speed
3 4 1 4 5 6 6 8 8 6 5 7 7 6 5 4 4 3 3 2 1 1 1 1 1 0 1 2 3 3 4 4 4 4 4 4 4 3 3 2 2 3 4 4
4 1 4 4 3 6 7 9 8 6 4 7 7 6 4 3 3 3 3 2 2 1 1 1 1 0 1 1 1 2 3 4 4 3 3 3 3 3 3 2 2 3 4 5
4 5 3 5 5 7 8 9 10 10 8 8 9 7 3 0 1 1 2 2 3 2 2 1 1 1 1 1 0 1 1 3 3 3 3 2 3 3 3 3 3 4 4 4
1 2 4 6 5 8 8 7 10 10 11 7 7 8 1 0 1 3 4 4 4 4 2 1 1 1 1 1 1 1 1 2 3 4 4 4 3 3 4 3 3 3 4 4
2 3 5 5 6 9 9 9 10 11 11 10 7 9 1 1 2 4 5 5 5 5 4 3 2 2 1 1 0 1 1 1 2 3 4 4 4 4 3 3 3 3 2 3
2 2 4 6 6 5 7 9 10 10 9 8 4 8 3 4 6 6 6 6 6 5 5 4 3 2 1 1 1 0 1 1 1 2 3 4 4 4 3 3 3 3 2 2
2 1 2 4 7 3 7 10 7 6 6 5 3 6 3 7 7 6 6 6 6 6 5 4 3 2 2 1 1 1 0 1 0 1 2 3 4 4 4 3 2 3 2 1
6 3 5 5 8 9 7 8 8 9 9 8 5 5 4 6 7 6 6 6 6 7 6 5 4 3 2 2 1 1 0 0 1 1 1 3 3 3 2 2 3 2 2 1
7 6 4 5 6 8 7 6 8 11 12 11 5 4 1 4 5 7 7 7 7 7 7 5 4 3 3 2 2 2 1 0 1 0 0 1 2 2 1 2 3 2 1 1
7 9 6 5 5 1 6 7 6 8 9 10 8 6 4 6 6 7 8 9 8 7 7 5 4 3 3 2 2 2 1 0 1 2 1 1 0 1 1 2 1 2 1 1
7 8 8 6 6 8 6 6 7 9 8 10 10 5 7 7 7 7 8 8 8 7 6 5 4 4 3 2 1 2 1 1 1 2 2 1 1 1 1 1 1 1 1 2
6 7 9 8 4 5 6 7 8 9 9 10 10 4 5 7 7 7 8 8 8 7 6 5 4 4 3 3 3 2 2 1 1 1 1 1 1 2 1 1 1 1 2 2
7 6 9 4 4 3 5 6 8 9 10 9 10 5 5 8 8 7 8 8 7 5 5 5 4 4 4 4 3 2 1 1 1 1 1 1 1 1 1 1 1 1 2 2
7 6 8 11 11 11 12 11 11 11 10 11 11 11 9 11 11 10 9 8 6 5 4 4 4 4 4 4 4 2 1 1 1 1 1 1 1 1 1 1 2 2 2 1
6 8 9 11 12 12 13 12 11 11 11 12 13 11 10 10 10 10 9 8 7 6 5 4 5 4 4 5 4 3 2 1 1 1 1 0 1 1 1 1 1 2 1 1
5 8 10 11 9 10 10 9 9 9 9 11 12 9 8 9 10 9 8 8 8 7 6 5 4 4 4 4 4 3 2 2 1 1 1 1 1 1 1 1 1 1 2 1
5 7 9 9 9 10 7 4 5 7 8 10 10 9 10 10 10 9 8 7 7 7 7 6 4 4 4 4 3 3 2 2 2 2 2 1 1 1 1 1 1 2 2 1
7 7 6 8 9 7 4 4 5 7 7 7 8 9 9 10 10 7 6 7 8 8 7 6 4 4 4 4 3 3 2 2 2 2 2 1 1 1 1 1 1 1 1 1
5 6 7 7 9 8 2 4 6 9 8 5 9 10 10 10 10 4 5 7 8 7 7 6 4 4 4 4 3 3 3 3 3 2 2 1 1 1 1 1 2 2 2 2
4 6 7 8 9 7 5 7 9 10 7 7 11 11 11 11 10 6 8 9 9 7 6 5 4 4 3 3 4 4 3 3 3 3 3 2 2 2 1 1 2 2 2 2
5 6 7 9 9 6 5 8 8 7 7 11 13 12 11 11 9 9 10 9 8 7 6 5 5 4 4 4 4 4 4 3 3 3 3 2 2 2 2 2 2 2 2 2
7 6 6 7 8 4 7 8 7 9 11 12 12 12 11 11 10 9 9 8 7 6 6 5 4 4 3 4 4 4 4 3 3 3 3 2 2 2 1 2 2 2 2 2
5 6 6 7 7 7 8 9 9 10 12 12 12 12 11 11 10 10 8 7 6 6 5 5 4 4 4 4 3 4 3 3 3 2 2 2 2 2 2 3 3 3 2 2
5 5 8 10 9 11 12 11 11 11 12 12 12 11 11 11 10 9 8 6 5 5 5 4 4 4 3 3 3 3 3 3 3 3 2 2 3 3 2 3 3 2 2 2
9 8 9 13 13 13 11 13 14 13 13 12 12 11 10 10 9 8 7 5 5 5 4 4 4 4 3 3 3 3 2 2 2 2 2 2 1 1 1 1 1 2 2 2
7 8 10 11 12 13 15 14 14 14 12 12 12 11 10 9 8 7 6 5 5 5 4 4 4 4 4 3 3 3 2 1 2 2 2 1 1 0 1 1 1 1 0 1
Wind_Direction
239 246 336 358 329 323 308 301 302 315 327 300 298 300 312 316 293 289 289 293 323 339 11 34 36 74 147 172 178 192 201 196 202 206 214 213 223 225 228 226 237 240 241 238
230 39 16 331 309 294 294 295 305 314 327 297 294 291 293 304 306 315 319 315 321 338 31 25 4 46 83 101 167 188 204 202 208 214 223 221 231 235 229 232 234 248 245 242
332 20 345 295 294 299 299 310 317 312 301 265 276 259 253 122 35 17 6 3 0 356 344 354 348 7 355 35 123 182 212 211 209 211 218 216 221 230 229 225 228 238 240 239
333 1 295 297 315 313 305 331 309 297 288 286 285 289 265 92 53 40 28 13 3 355 340 351 7 347 335 356 61 189 201 209 205 208 211 220 235 245 254 253 247 247 241 239
341 334 315 319 337 317 320 316 294 286 280 280 269 282 333 135 4 24 22 13 5 2 354 357 355 349 349 355 5 172 173 186 198 205 210 226 236 244 248 253 249 249 236 240
327 317 334 334 319 308 309 293 270 252 256 267 308 297 318 36 18 16 19 12 6 4 4 5 4 9 8 329 295 215 159 152 205 202 208 220 236 243 250 257 262 252 233 231
291 209 32 334 311 300 312 307 287 270 267 296 348 289 3 41 29 24 14 11 9 3 358 4 357 345 343 319 297 309 134 122 239 218 215 223 233 232 236 254 260 265 253 229
312 312 24 356 332 320 318 309 310 305 306 309 288 279 45 53 46 34 18 12 9 1 355 357 355 339 321 321 320 324 355 208 235 229 222 226 237 243 250 263 272 260 260 248
328 317 347 349 327 313 312 317 324 291 285 285 285 285 256 55 29 17 11 8 2 358 353 354 356 346 336 344 359 353 348 358 337 313 172 195 240 260 269 254 250 247 241 228
321 299 305 322 276 273 319 320 296 293 302 294 288 291 336 359 359 356 358 358 354 353 354 356 354 348 344 360 15 3 18 51 43 32 45 85 87 273 259 269 293 285 267 236
324 293 295 293 301 321 310 306 306 298 296 296 296 321 25 1 350 346 350 351 352 350 350 358 0 353 349 358 359 343 2 36 52 55 61 20 352 345 317 296 303 289 281 256
345 302 297 295 293 299 305 318 314 303 301 291 291 310 34 355 349 347 346 348 351 352 354 359 358 349 347 353 350 336 338 8 78 76 71 52 353 345 341 336 325 303 287 266
331 298 295 277 202 230 298 310 306 296 287 283 285 300 20 356 351 348 345 346 347 352 357 0 355 348 346 349 344 334 352 12 48 84 65 44 9 333 320 332 337 316 312 310
293 281 292 303 311 314 307 305 307 297 287 290 292 306 340 352 346 345 342 342 341 341 349 352 348 348 354 347 342 342 3 25 32 38 31 42 8 343 331 349 351 338 339 326
305 285 290 290 293 294 293 297 301 295 293 292 304 312 341 346 342 340 338 338 338 337 341 344 341 346 350 348 348 350 352 356 346 325 331 17 342 324 303 325 337 346 336 342
298 291 294 285 288 289 286 294 295 295 298 297 301 310 348 340 337 336 336 339 341 336 333 330 327 331 334 336 338 341 339 338 323 316 308 338 327 311 292 309 343 357 355 355
285 285 292 294 309 288 277 325 317 316 317 315 314 331 338 330 334 333 333 333 331 331 331 324 317 320 317 315 315 316 314 315 306 291 297 313 291 296 301 314 5 12 351 344
280 287 283 292 297 282 38 30 336 314 318 326 325 332 330 329 324 321 326 332 330 327 326 322 317 312 304 299 296 296 290 285 288 282 283 276 269 286 321 326 350 355 344 333
260 279 286 288 293 289 293 13 340 308 299 345 339 334 328 329 309 299 338 336 326 323 322 319 315 305 293 289 285 278 268 267 268 279 289 271 268 279 289 331 350 347 334 324
232 251 273 285 291 291 359 15 339 300 272 20 346 331 326 319 309 327 335 323 318 317 317 314 302 293 285 282 273 266 264 263 268 275 280 274 264 273 280 301 316 324 313 304
285 269 268 281 279 282 14 355 321 298 336 341 327 322 317 313 314 316 312 309 310 309 308 306 299 292 284 276 267 265 271 275 278 281 278 270 262 262 262 274 292 292 296 311
299 298 290 286 279 302 12 335 328 327 324 319 319 319 315 311 309 305 304 307 308 304 302 304 295 291 282 273 264 262 273 280 275 273 271 269 265 270 257 263 275 279 284 287
275 302 303 290 296 326 322 313 316 316 312 314 315 315 312 306 303 305 304 304 301 301 305 304 293 290 281 270 268 271 277 270 268 266 269 270 258 256 256 261 259 253 251 278
276 286 278 280 282 302 305 304 310 312 308 309 310 307 303 300 299 300 299 296 297 301 300 299 289 285 279 277 277 276 276 260 251 252 253 254 249 242 237 257 258 260 270 294
288 288 281 279 292 300 300 310 314 311 309 308 306 303 301 299 299 301 301 298 295 290 286 287 282 277 275 276 280 278 275 257 252 252 247 246 242 240 228 240 310 297 338 350
264 271 277 287 302 301 302 306 310 308 308 306 302 303 306 302 299 300 299 294 285 281 282 282 279 274 275 276 281 280 270 241 232 240 252 262 261 278 245 214 152 91 303 78